BEIDOU-3 M13

Last updated on Jan. 19, 2020, 4:37 a.m. UTC

1 43622U 18072A   20018.35804226  .00000007  00000-0  00000-0 0  9993
2 43622  55.0887 141.0074 0004374 279.6281  83.9872  1.86231656  9040
UTC
Height (km)
Latitude
Longitude
Inclination
Orbital Period
UTC large
Height (km)
Speed (km/s)
/
Latitude / Longitude
Inclination (degrees)
Orbital Period (minutes)
Azimuth
Elevation
Range (km)
Doppler Factor
iOS Compass Heading
iOS Angle

Next 30 passes for location: Hong Kong

Rise time Rise Azimuth (degrees) Set time Set Azimuth (degrees) Duration Max altitude (degrees)

No matching passes for this satellites